User: anonymous
Location: Mount Graham
(32.7016°N, 109.8912°W)
Time: 07:46:15
(UTC-07:00)
Language:

Cosmos 1340 - Orbit

View from above orbital plane
View from above orbital plane
View from above satellite
View from above satellite

Ground track
Ground track

The orbit data is extracted from the following two-line orbital elements,

1 13067U 82013A   14209.34043498  .00001902  00000-0  10623-3 0  4332
2 13067 081.1900 279.9651 0004096 116.7812 287.5092 15.13073615767872
Epoch (UTC): 28 July 2014 08:10:13
Eccentricity: 0.0004096
inclination: 81.1900°
perigee height: 524 km
apogee height: 529 km
right ascension of ascending node: 279.9651°
argument of perigee: 116.7812°
revolutions per day: 15.13073615
mean anomaly at epoch: 287.5092°
orbit number at epoch: 76787

The dashed part of the orbit path shows where the satellite is in the earth's shadow,  

DLR